MIDAS 4 DEB, 2371

Orbit data source: Space-Track

MIDAS 4 DEB, 2371 is space debris in LEO originally from a launch on Sat, 21 Oct 1961 UTC launched from the Air Force Western Test Range (AFWTR). Debris objects in space refer to the collection of defunct objects orbiting the Earth. Examples of debris include non-operational satellites, rocket bodies, and fragments generated from explosions, collisions, or faulty payload assembly.

Loading next visibility...
Identifier
2371, 1961-028F
Orbit
LEO
Country
Flag of USUS
Related business
Manufacturer
Unknown
Mission
Spacecraft
Bus & Motor
Unknown
Mass
Unknown
Launch date (UTC)
1961-10-21 (65 years ago)
Launch vehicle
Unknown
Launch site
Air Force Western Test Range (AFWTR)
Object type
Payload
Rocket body
Debris
Shape & HBR
Unknown shape, 1.1 m
Radar Cross Section
Medium (>0.1 m² and <1 m²)

Expand to show TLE details & history
Last TLE update: 3 weeks ago

TLE from 3 weeks ago
0 MIDAS 4 DEB
1 02371U 61028F   26219.45160677 -.00000571  00000-0 -21506+0 0  9994
2 02371  95.8368 311.9333 0571090 131.0644 234.1009  8.70086251 33583
Epoch: 2026-08-07T10:50Z
TLE epoch observation values (Epoch: 2026-08-07T10:50:18.824Z)
Latitude
-0°
Longitude
-166.62224°
Altitude
3,964.048 km
Speed
6.098 km/s
True Right ascension
20h 47m 43s
True Declination
0° 00' 00"
Sunlit
Object was in full shadow at epoch
Visualization orbit readout
Latitude
Unknown
Longitude
Unknown
Altitude
Unknown
Speed
Unknown
Apparent Right ascension
Unknown
Apparent Declination
Unknown
Sunlit
N/A
Visualization observer readout
Local Sidereal Time
03:51:26
Azimuth
Unknown
Elevation
Unknown
Doppler factor
Unknown
Orbital elements
Apogee altitude
4,175.131 km
Perigee altitude
3,034.876 km
Semi-major axis
9,983.14 km
Eccentricity
0.05711
Inclination
95.8368°
RAAN
311.9333°
Arg. of periapsis
131.0644°
True anomaly
229.01969°
Mean anomaly
234.1009°
Eccentric anomaly
231.53875°
Mean motion
2.17592 °/min
Orbital period
165.45 mins
BSTAR
-0.21506
Loading maneuver chart data...
Computing Atmospheric mass density...
Loading historical data...
Loading historical data...
Loading historical data...
Loading historical data...
Loading historical data...
Loading historical data...
Loading historical data...

Documentation

Showing up to 5 results
|